Location: Newark
(25.0000°N, 73.5000°E)
Time: 10:53:17
(UTC+00:00)

Altair - Pass Details

Date: 02 March 2021
Orbit: 1501 x 1683 km, 47.2° (Epoch: 15 April)

Event Time Altitude Azimuth Distance (km) Brightness Sun altitude
Rises 19:35:55 0° 317° (NW) 4,746 - -71.4°
Reaches altitude 10° 19:39:16 10° 325° (NW) 3,787 - -71.2°
Maximum altitude 19:48:14 41° 33° (NNE) 2,216 - -70.5°
Drops below altitude 10° 19:57:28 10° 101° (E) 3,907 - -69.6°
Sets 20:00:57 0° 108° (ESE) 4,909 - -69.2°
